This demonstration page uses our WeatherBlox Daily Observations layout. Learn more.

Left ArrowRight Arrow

44.89941, -97.11507

Hourly Observations for July 1, 2021

Temp ( °F °C ) Dew Point ( °F °C ) Humidity (%) Winds ( mph kmh ) Pressure ( in mb ) Visibility ( mi km ) Precip ( " mm )
12:53 am 00:53 Clear 65 18.3 57 13.9 76 76 Calm 30.09 1019 10 16 0.00 0.00
1:53 am 01:53 Clear 61 16.1 55 12.8 81 81 Calm 30.09 1019 10 16 0.00 0.00
2:53 am 02:53 Clear 62 16.7 56 13.3 80 80 Calm 30.09 1019 10 16 0.00 0.00
3:53 am 03:53 Clear 59 15 55 12.8 87 87 Calm 30.09 1019 10 16 0.00 0.00
4:53 am 04:53 Clear 57 13.9 54 12.2 90 90 Calm 30.10 1019 10 16 0.00 0.00
5:53 am 05:53 Sunny 56 13.3 54 12.2 93 93 Calm 30.10 1019 10 16 0.00 0.00
6:53 am 06:53 Sunny 58 14.4 54 12.2 87 87 Calm 30.11 1020 10 16 0.00 0.00
7:53 am 07:53 Sunny 68 20 57 13.9 68 68 Calm 30.11 1020 10 16 0.00 0.00
8:53 am 08:53 Sunny 75 23.9 57 13.9 54 54 SSW 3 6 30.11 1020 10 16 0.00 0.00
9:53 am 09:53 Sunny 80 26.7 54 12.2 41 41 S 5 7 30.11 1020 10 16 0.00 0.00
10:53 am 10:53 Sunny 81 27.2 54 12.2 39 39 VRB 5 7 30.11 1020 10 16 0.00 0.00
11:53 am 11:53 Sunny 83 28.3 55 12.8 38 38 S 8 13 30.11 1020 10 16 0.00 0.00
12:53 pm 12:53 Sunny 85 29.4 55 12.8 36 36 S 8 13 30.11 1020 10 16 0.00 0.00
1:53 pm 13:53 Mostly Cloudy 85 29.4 56 13.3 37 37 SSW 12 19 30.10 1019 10 16 0.00 0.00
2:53 pm 14:53 Mostly Cloudy 85 29.4 55 12.8 36 36 S 7 11 30.09 1019 10 16 0.00 0.00
3:53 pm 15:53 Partly Cloudy 86 30 56 13.3 36 36 S 5 7 30.08 1019 10 16 0.00 0.00
4:53 pm 16:53 Cloudy 87 30.6 56 13.3 35 35 VRB 3 6 30.07 1018 10 16 0.00 0.00
5:53 pm 17:53 Mostly Cloudy 86 30 57 13.9 37 37 ESE 7 11 30.07 1018 10 16 0.00 0.00
6:53 pm 18:53 Mostly Cloudy 85 29.4 57 13.9 39 39 NE 3 6 30.06 1018 10 16 0.00 0.00
7:53 pm 19:53 Sunny 83 28.3 58 14.4 43 43 ENE 5 7 30.05 1018 10 16 0.00 0.00
8:53 pm 20:53 Sunny 82 27.8 58 14.4 44 44 E 3 6 30.06 1018 10 16 0.00 0.00
9:53 pm 21:53 Clear 78 25.6 60 15.6 54 54 Calm 30.06 1018 10 16 0.00 0.00
10:53 pm 22:53 Mostly Clear 73 22.8 61 16.1 66 66 SSE 3 6 30.08 1019 10 16 0.00 0.00
11:53 pm 23:53 Mostly Cloudy 73 22.8 62 16.7 69 69 E 5 7 30.08 1019 10 16 0.00 0.00

Powered by AerisWeather